Chelan, Washington, United States (98816)
Lat: 47.84N, Lon: 120.02W
Wx Zone: WAZ041
Local Info
Past Weather Observations for Today

NOTE: This archive is for the closest National Weather Service station to Chelan. Information may differ from the station used for current weather conditions.

Click here for Long-term Archive

Time Weather Temperature Dewpoint Humidity Pressure Winds Precip Visibility
16:55
Clear
52°F / 11°C 41°F / 5°C 67% 29.71 in
(1006 mb)
Variable 3.5 mph
(Variable 6 kph)
-
15:56
Partly Cloudy
54°F / 12°C 43°F / 6°C 67% 29.71 in
(1006 mb)
E 4.6 mph
(E 7 kph)
- 10SM
15:55
Partly Cloudy
52°F / 11°C 43°F / 6°C 72% 29.71 in
(1006 mb)
E 5.8 mph
(E 9 kph)
-
14:55
Partly Cloudy
54°F / 12°C 43°F / 6°C 67% 29.74 in
(1007 mb)
E 6.9 mph
(E 11 kph)
-
13:55
Overcast
46°F / 8°C 39°F / 4°C 76% 29.74 in
(1007 mb)
W 3.5 mph
(W 6 kph)
-
12:55
Overcast
45°F / 7°C 39°F / 4°C 81% 29.77 in
(1008 mb)
Calm -
11:55
Partly Cloudy
46°F / 8°C 39°F / 4°C 76% 29.8 in
(1009 mb)
Variable 4.6 mph
(Variable 7 kph)
-
10:55
Overcast
41°F / 5°C 37°F / 3°C 87% 29.83 in
(1010 mb)
E 3.5 mph
(E 6 kph)
-
10:45
Overcast
41°F / 5°C 37°F / 3°C 87% 29.83 in
(1010 mb)
E 8.1 mph
(E 13 kph)
-
10:37
Overcast
Fog
41°F / 5°C 37°F / 3°C 87% 29.83 in
(1010 mb)
E 13.8 mph
(E 22 kph)
- 2SM
10:23
Overcast
Fog
39°F / 4°C 37°F / 3°C 93% 29.83 in
(1010 mb)
NE 6.9 mph
(NE 11 kph)
- 1 1/4SM
10:18
Overcast
39°F / 4°C 37°F / 3°C 93% 29.83 in
(1010 mb)
E 8.1 mph
(E 13 kph)
-
10:11
Overcast
Fog
39°F / 4°C 37°F / 3°C 93% 29.83 in
(1010 mb)
E 6.9 mph
(E 11 kph)
- 3/4SM
09:57
Overcast
Fog
39°F / 4°C 36°F / 2°C 87% 29.83 in
(1010 mb)
E 4.6 mph
(E 7 kph)
- 1/4SM
09:55
Overcast
39°F / 4°C 36°F / 2°C 87% 29.83 in
(1010 mb)
E 4.6 mph
(E 7 kph)
-
08:56
Overcast
Fog
36°F / 2°C 34°F / 1°C 93% 29.83 in
(1010 mb)
NE 3.5 mph
(NE 6 kph)
- 1/8SM
08:55
Overcast
36°F / 2°C 34°F / 1°C 93% 29.83 in
(1010 mb)
ENE 4.6 mph
(ENE 7 kph)
-
07:55
Overcast
36°F / 2°C 34°F / 1°C 93% 29.86 in
(1011 mb)
NE 3.5 mph
(NE 6 kph)
-
07:13
Overcast
36°F / 2°C 34°F / 1°C 93% 29.89 in
(1012 mb)
NW 3.5 mph
(NW 6 kph)
-
06:55
Overcast
37°F / 3°C 34°F / 1°C 87% 29.86 in
(1011 mb)
NW 3.5 mph
(NW 6 kph)
-
05:56
Overcast
37°F / 3°C 34°F / 1°C 87% 29.89 in
(1012 mb)
SW 4.6 mph
(SW 7 kph)
- 2SM
05:55
Overcast
37°F / 3°C 34°F / 1°C 87% 29.89 in
(1012 mb)
SSW 3.5 mph
(SSW 6 kph)
-
04:55
Overcast
37°F / 3°C 34°F / 1°C 87% 29.89 in
(1012 mb)
Calm -
03:55
Overcast
37°F / 3°C 36°F / 2°C 93% 29.89 in
(1012 mb)
Calm -
02:55
Overcast
37°F / 3°C 36°F / 2°C 93% 29.92 in
(1013 mb)
Calm -
01:55
Overcast
37°F / 3°C 36°F / 2°C 93% 29.92 in
(1013 mb)
Calm -
00:55
Overcast
37°F / 3°C 36°F / 2°C 93% 29.95 in
(1014 mb)
Calm -
Time Weather Temperature Dewpoint Humidity Pressure Winds Precip Visibility


Weather for websites

WeatherForYou.com, LLC is not responsible for any damages or problems caused by this service. Current weather conditions are obtained from the closest station including government and personal stations which may have varying degrees of accuracy. Weather forecasts are derived from the NOAA NDFD. Like all things, this site belongs to Jesus Christ... He just trusts me to maintain it. If you have any questions or comments email webmaster@weatherforyou.com

Copyright © 2014, WeatherForYou.com LLC. All rights reserved.